Location: Benque
(43.2594°N, 0.9178°E)
Time: 06:16:32
(UTC+00:00)

SKYMED 2 - Pass Details

Date: 24 January 2020
Orbit: 621 x 623 km, 97.9° (Epoch: 17 February)

Event Time Altitude Azimuth Distance (km) Brightness Sun altitude
Rises 17:21:03 0° 23° (NNE) 2,911 6.6 -4.9°
Reaches altitude 10° 17:23:29 10° 34° (NE) 1,999 5.7 -5.3°
Maximum altitude 17:27:19 30° 96° (E) 1,133 4.5 -5.9°
Drops below altitude 10° 17:31:06 10° 157° (SSE) 1,985 6.1 -6.6°
Sets 17:33:30 0° 169° (SSE) 2,885 7.1 -7.0°
